When you browse on this site, cookies collect data to enhance your experience and personalize the content and advertising you see.
Visit our Privacy Policy to learn more. By continuing to use the site, you agree to this use of cookies and data.
  • In Czech Republic
  • List of Countries
  • For 7 days
  • Water Temperature
  • Weather Map
  • Weather Widgets
  • user-avatar
    Login

    Hourly Weather Sorochinka

    Today, 26 May, Tuesday

    Time Temperature Precipitation Wind Pressure Humidity
    00:00 +10°C° 0 mm 1 mps 748 mmHg 86%
    01:00 +9°C° 0 mm 1 mps 748 mmHg 86%
    02:00 +9°C° 0 mm 1 mps 748 mmHg 87%
    03:00 +9°C° 0 mm 2 mps 748 mmHg 87%
    04:00 +9°C° 0 mm 2 mps 749 mmHg 87%
    05:00 +10°C° 0 mm 2 mps 749 mmHg 86%
    06:00 +10°C° 0.2 mm 3 mps 749 mmHg 85%
    07:00 +11°C° 0.2 mm 3 mps 749 mmHg 83%
    08:00 +12°C° 0 mm 4 mps 749 mmHg 81%
    09:00 +12°C° 0.3 mm 3 mps 749 mmHg 81%
    10:00 +12°C° 0.3 mm 3 mps 749 mmHg 81%
    11:00 +12°C° 0.3 mm 3 mps 748 mmHg 82%
    12:00 +13°C° 0.2 mm 3 mps 748 mmHg 78%
    13:00 +14°C° 0.2 mm 3 mps 748 mmHg 74%
    14:00 +16°C° 0.2 mm 3 mps 748 mmHg 71%
    15:00 +14°C° 0.4 mm 3 mps 748 mmHg 76%
    16:00 +13°C° 0.4 mm 3 mps 747 mmHg 80%
    17:00 +12°C° 0.4 mm 3 mps 747 mmHg 85%
    18:00 +12°C° 0.1 mm 3 mps 747 mmHg 88%
    19:00 +12°C° 0.1 mm 2 mps 747 mmHg 91%
    20:00 +12°C° 0.1 mm 2 mps 747 mmHg 93%
    21:00 +10°C° 0.2 mm 2 mps 747 mmHg 95%
    22:00 +10°C° 0.2 mm 2 mps 746 mmHg 96%
    23:00 +10°C° 0.2 mm 2 mps 746 mmHg 98%

    Tomorrow, 27 May, Wednesday

    Time Temperature Precipitation Wind Pressure Humidity
    00:00 +10°C° 0.1 mm 2 mps 746 mmHg 98%
    01:00 +10°C° 0.1 mm 2 mps 746 mmHg 98%
    02:00 +10°C° 0.1 mm 2 mps 746 mmHg 98%
    03:00 +11°C° 0.1 mm 1 mps 745 mmHg 98%
    04:00 +11°C° 0.1 mm 1 mps 745 mmHg 98%
    05:00 +11°C° 0.1 mm 1 mps 745 mmHg 98%
    06:00 +11°C° 0.1 mm 1 mps 746 mmHg 96%
    07:00 +12°C° 0.1 mm 1 mps 746 mmHg 94%
    08:00 +12°C° 0.1 mm 1 mps 746 mmHg 91%
    09:00 +13°C° 0.3 mm 1 mps 746 mmHg 88%
    10:00 +14°C° 0.3 mm 2 mps 746 mmHg 85%
    11:00 +14°C° 0.3 mm 2 mps 746 mmHg 82%
    12:00 +15°C° 0.2 mm 2 mps 746 mmHg 79%
    13:00 +16°C° 0.2 mm 1 mps 746 mmHg 75%
    14:00 +16°C° 0.2 mm 1 mps 745 mmHg 72%
    15:00 +16°C° 0.3 mm 1 mps 745 mmHg 73%
    16:00 +16°C° 0.3 mm 2 mps 745 mmHg 74%
    17:00 +17°C° 0.3 mm 2 mps 745 mmHg 74%
    18:00 +15°C° 0.1 mm 2 mps 745 mmHg 79%
    19:00 +14°C° 0.1 mm 2 mps 745 mmHg 85%
    20:00 +12°C° 0.1 mm 2 mps 745 mmHg 90%
    21:00 +12°C° 0 mm 2 mps 745 mmHg 91%
    22:00 +10°C° 0 mm 2 mps 745 mmHg 92%
    23:00 +10°C° 0 mm 2 mps 745 mmHg 92%

    Day after tomorrow, 28 May, Thursday

    Time Temperature Precipitation Wind Pressure Humidity
    00:00 +11°C° 0 mm 1 mps 745 mmHg 93%
    01:00 +10°C° 0 mm 1 mps 745 mmHg 93%
    02:00 +10°C° 0 mm 1 mps 745 mmHg 93%
    03:00 +11°C° 0 mm 1 mps 745 mmHg 93%
    04:00 +10°C° 0 mm 2 mps 745 mmHg 93%
    05:00 +12°C° 0 mm 2 mps 744 mmHg 93%
    06:00 +13°C° 0 mm 2 mps 744 mmHg 88%
    07:00 +15°C° 0 mm 2 mps 744 mmHg 83%
    08:00 +16°C° 0 mm 3 mps 745 mmHg 79%
    09:00 +17°C° 0.2 mm 3 mps 744 mmHg 77%
    10:00 +18°C° 0.2 mm 4 mps 744 mmHg 76%
    11:00 +18°C° 0.2 mm 4 mps 744 mmHg 74%
    12:00 +18°C° 0.5 mm 4 mps 743 mmHg 76%
    13:00 +17°C° 0.5 mm 4 mps 743 mmHg 79%
    14:00 +16°C° 0.5 mm 5 mps 743 mmHg 82%
    15:00 +15°C° 1.1 mm 4 mps 743 mmHg 86%
    16:00 +14°C° 1.1 mm 4 mps 742 mmHg 91%
    17:00 +13°C° 1.1 mm 3 mps 742 mmHg 95%
    18:00 +13°C° 0.2 mm 4 mps 741 mmHg 95%
    19:00 +13°C° 0.2 mm 5 mps 741 mmHg 94%
    20:00 +13°C° 0.2 mm 6 mps 741 mmHg 94%
    21:00 +14°C° 0.7 mm 6 mps 740 mmHg 94%
    22:00 +15°C° 0.7 mm 7 mps 739 mmHg 94%
    23:00 +15°C° 0.7 mm 7 mps 739 mmHg 94%

    29 May, Friday

    Time Temperature Precipitation Wind Pressure Humidity
    00:00 +15°C° 0.6 mm 7 mps 738 mmHg 94%
    01:00 +15°C° 0.6 mm 7 mps 738 mmHg 94%
    02:00 +15°C° 0.6 mm 6 mps 737 mmHg 94%
    03:00 +15°C° 0.6 mm 6 mps 737 mmHg 93%
    04:00 +15°C° 0.6 mm 6 mps 737 mmHg 93%
    05:00 +15°C° 0.6 mm 6 mps 737 mmHg 93%
    06:00 +16°C° 0.3 mm 6 mps 737 mmHg 92%
    07:00 +16°C° 0.3 mm 6 mps 737 mmHg 92%
    08:00 +16°C° 0.3 mm 6 mps 738 mmHg 91%
    09:00 +17°C° 0.3 mm 6 mps 738 mmHg 90%
    10:00 +19°C° 0.3 mm 5 mps 738 mmHg 89%
    11:00 +19°C° 0.3 mm 4 mps 738 mmHg 87%
    12:00 +20°C° 0.7 mm 4 mps 738 mmHg 85%
    13:00 +21°C° 0.7 mm 5 mps 738 mmHg 84%
    14:00 +22°C° 0.7 mm 5 mps 737 mmHg 82%
    15:00 +21°C° 1.9 mm 5 mps 737 mmHg 85%
    16:00 +20°C° 1.9 mm 5 mps 737 mmHg 88%
    17:00 +19°C° 1.9 mm 5 mps 737 mmHg 91%
    18:00 +19°C° 1.2 mm 5 mps 737 mmHg 91%
    19:00 +18°C° 1.2 mm 4 mps 737 mmHg 90%
    20:00 +18°C° 1.2 mm 4 mps 737 mmHg 89%
    21:00 +18°C° 0.9 mm 4 mps 737 mmHg 91%
    22:00 +18°C° 0.9 mm 4 mps 737 mmHg 92%
    23:00 +17°C° 0.9 mm 4 mps 737 mmHg 93%

    30 May, Saturday

    Time Temperature Precipitation Wind Pressure Humidity
    00:00 +17°C° 0.2 mm 3 mps 737 mmHg 94%
    01:00 +17°C° 0.2 mm 3 mps 736 mmHg 95%
    02:00 +16°C° 0.2 mm 3 mps 736 mmHg 96%
    03:00 +17°C° 0 mm 3 mps 736 mmHg 96%
    04:00 +17°C° 0 mm 3 mps 736 mmHg 96%
    05:00 +17°C° 0 mm 4 mps 735 mmHg 96%
    06:00 +17°C° 0.1 mm 4 mps 735 mmHg 94%
    07:00 +18°C° 0.1 mm 4 mps 735 mmHg 91%
    08:00 +18°C° 0.1 mm 4 mps 735 mmHg 89%
    09:00 +19°C° 0 mm 5 mps 735 mmHg 86%
    10:00 +20°C° 0 mm 5 mps 734 mmHg 84%
    11:00 +21°C° 0 mm 6 mps 734 mmHg 81%
    12:00 +21°C° 0.2 mm 6 mps 734 mmHg 80%
    13:00 +22°C° 0.2 mm 6 mps 733 mmHg 79%
    14:00 +22°C° 0.2 mm 6 mps 733 mmHg 78%
    15:00 +22°C° 1.1 mm 5 mps 733 mmHg 82%
    16:00 +21°C° 1.1 mm 5 mps 732 mmHg 85%
    17:00 +20°C° 1.1 mm 4 mps 732 mmHg 89%
    18:00 +19°C° 2.2 mm 4 mps 732 mmHg 92%
    19:00 +18°C° 2.2 mm 3 mps 731 mmHg 94%
    20:00 +17°C° 2.2 mm 3 mps 731 mmHg 97%
    21:00 +17°C° 3 mm 3 mps 731 mmHg 97%
    22:00 +16°C° 3 mm 2 mps 731 mmHg 97%
    23:00 +16°C° 3 mm 2 mps 730 mmHg 97%

    31 May, Sunday

    Time Temperature Precipitation Wind Pressure Humidity
    00:00 +16°C° 1.9 mm 2 mps 730 mmHg 97%
    01:00 +16°C° 1.9 mm 2 mps 730 mmHg 97%
    02:00 +16°C° 1.9 mm 2 mps 730 mmHg 97%
    03:00 +14°C° 0.2 mm 3 mps 730 mmHg 96%
    04:00 +14°C° 0.2 mm 3 mps 730 mmHg 96%
    05:00 +14°C° 0.2 mm 4 mps 730 mmHg 96%
    06:00 +14°C° 0 mm 4 mps 730 mmHg 95%
    07:00 +14°C° 0 mm 5 mps 731 mmHg 94%
    08:00 +14°C° 0 mm 5 mps 731 mmHg 93%
    09:00 +14°C° 0 mm 5 mps 732 mmHg 91%
    10:00 +14°C° 0 mm 5 mps 733 mmHg 90%
    11:00 +14°C° 0 mm 6 mps 734 mmHg 89%
    12:00 +14°C° 0 mm 6 mps 734 mmHg 89%
    13:00 +14°C° 0 mm 6 mps 735 mmHg 89%
    14:00 +12°C° 0 mm 7 mps 735 mmHg 89%
    15:00 +13°C° 0 mm 6 mps 736 mmHg 89%
    16:00 +13°C° 0 mm 6 mps 736 mmHg 90%
    17:00 +13°C° 0 mm 6 mps 736 mmHg 90%
    18:00 +13°C° 0.1 mm 5 mps 737 mmHg 91%
    19:00 +12°C° 0.1 mm 4 mps 737 mmHg 91%
    20:00 +12°C° 0.1 mm 3 mps 737 mmHg 92%
    21:00 +12°C° 0.1 mm 3 mps 737 mmHg 93%
    22:00 +12°C° 0.1 mm 3 mps 738 mmHg 94%
    23:00 +12°C° 0.1 mm 3 mps 738 mmHg 94%
    Show more